RYR6AT EGKK-EKCH

Flight info

Callsign RYR6AT
Flight time 1h 30m
Altitude 37000
Route FRANE M604 PAAVO Q295 SOMVA DCT MAVAS DCT DOSUR DCT TALSA P729 TUDLO
Aircraft B738/M-SDE2E3FGHIRWXY/LB1

Departure

Time 2026-05-04 19:50
Airport London Gatwick Airport (EGKK)

Arrival

Time 2026-05-04 21:20
Airport Copenhagen Kastrup Airport (EKCH)
Time Latitude Longitude Altitude Speed Heading
2026-05-04 18:52 51.15571 -0.17761 204 ft 0 kts 347°
2026-05-04 19:23 51.15569 -0.17760 204 ft 3 kts 347°
2026-05-04 19:24 51.15544 -0.17749 204 ft 3 kts 336°
2026-05-04 19:24 51.15522 -0.17727 216 ft 3 kts 310°
2026-05-04 19:24 51.15513 -0.17695 212 ft 1 kts 261°
2026-05-04 19:24 51.15513 -0.17693 213 ft 1 kts 260°
2026-05-04 19:28 51.15513 -0.17698 204 ft 2 kts 260°
2026-05-04 19:28 51.15505 -0.17764 204 ft 14 kts 260°
2026-05-04 19:29 51.15494 -0.17846 204 ft 8 kts 255°
2026-05-04 19:29 51.15485 -0.17899 210 ft 0 kts 255°
2026-05-04 19:33 51.15483 -0.17914 194 ft 0 kts 255°
2026-05-04 19:34 51.15482 -0.17920 190 ft 4 kts 255°
2026-05-04 19:34 51.15479 -0.17940 223 ft 3 kts 255°
2026-05-04 19:34 51.15476 -0.17954 217 ft 5 kts 257°
2026-05-04 19:34 51.15470 -0.18001 209 ft 6 kts 259°
2026-05-04 19:35 51.15462 -0.18060 209 ft 7 kts 258°
2026-05-04 19:35 51.15455 -0.18118 206 ft 9 kts 257°
2026-05-04 19:35 51.15443 -0.18200 207 ft 7 kts 258°
2026-05-04 19:35 51.15408 -0.18275 208 ft 15 kts 198°
2026-05-04 19:36 51.15328 -0.18257 204 ft 8 kts 167°
2026-05-04 19:36 51.15283 -0.18242 208 ft 6 kts 168°
2026-05-04 19:36 51.15207 -0.18243 204 ft 13 kts 214°
2026-05-04 19:36 51.15172 -0.18420 211 ft 20 kts 258°
2026-05-04 19:37 51.15142 -0.18642 210 ft 13 kts 257°
2026-05-04 19:37 51.15113 -0.18855 214 ft 24 kts 257°
2026-05-04 19:37 51.15086 -0.19047 215 ft 11 kts 257°
2026-05-04 19:37 51.15061 -0.19240 204 ft 23 kts 258°
2026-05-04 19:38 51.15019 -0.19539 207 ft 31 kts 257°
2026-05-04 19:38 51.14979 -0.19845 207 ft 26 kts 257°
2026-05-04 19:38 51.14939 -0.20129 211 ft 29 kts 258°
2026-05-04 19:38 51.14897 -0.20433 215 ft 30 kts 257°
2026-05-04 19:39 51.14845 -0.20801 204 ft 18 kts 257°
2026-05-04 19:39 51.14819 -0.20988 207 ft 16 kts 258°
2026-05-04 19:39 51.14803 -0.21106 208 ft 8 kts 256°
2026-05-04 19:39 51.14791 -0.21161 210 ft 10 kts 250°
2026-05-04 19:40 51.14773 -0.21263 204 ft 2 kts 256°
2026-05-04 19:40 51.14766 -0.21317 204 ft 3 kts 259°
2026-05-04 19:40 51.14758 -0.21361 204 ft 2 kts 248°
2026-05-04 19:40 51.14752 -0.21377 212 ft 5 kts 235°
2026-05-04 19:41 51.14733 -0.21400 204 ft 5 kts 201°
2026-05-04 19:41 51.14728 -0.21401 204 ft 0 kts 189°
2026-05-04 19:41 51.14688 -0.21394 209 ft 12 kts 161°
2026-05-04 19:41 51.14642 -0.21344 207 ft 4 kts 158°
2026-05-04 19:42 51.14636 -0.21340 206 ft 0 kts 159°
2026-05-04 19:42 51.14629 -0.21336 206 ft 0 kts 162°
2026-05-04 19:43 51.14627 -0.21336 206 ft 3 kts 162°
2026-05-04 19:43 51.14589 -0.21318 214 ft 9 kts 163°
2026-05-04 19:43 51.14522 -0.21217 207 ft 16 kts 103°
2026-05-04 19:44 51.14544 -0.21010 210 ft 24 kts 77°
2026-05-04 19:44 51.14581 -0.20750 208 ft 16 kts 68°
2026-05-04 19:44 51.14662 -0.20701 210 ft 2 kts 352°
2026-05-04 19:44 51.14705 -0.20716 207 ft 7 kts 346°
2026-05-04 19:45 51.14753 -0.20786 212 ft 12 kts 277°
2026-05-04 19:45 51.14735 -0.20935 209 ft 14 kts 259°
2026-05-04 19:45 51.14719 -0.21059 207 ft 14 kts 257°
2026-05-04 19:45 51.14708 -0.21141 209 ft 8 kts 257°
2026-05-04 19:46 51.14686 -0.21282 208 ft 15 kts 248°
2026-05-04 19:46 51.14639 -0.21335 208 ft 4 kts 174°
2026-05-04 19:46 51.14630 -0.21333 206 ft 0 kts 170°
2026-05-04 19:47 51.14588 -0.21318 214 ft 13 kts 162°
2026-05-04 19:48 51.14520 -0.21195 208 ft 14 kts 95°
2026-05-04 19:48 51.14523 -0.21159 205 ft 0 kts 78°
2026-05-04 19:49 51.14525 -0.21142 205 ft 9 kts 78°
2026-05-04 19:49 51.14586 -0.20699 218 ft 82 kts 77°
2026-05-04 19:49 51.14745 -0.19524 215 ft 148 kts 78°
2026-05-04 19:50 51.14969 -0.17782 582 ft 180 kts 78°
2026-05-04 19:50 51.15117 -0.16504 955 ft 196 kts 79°
2026-05-04 19:50 51.15381 -0.13544 1748 ft 212 kts 81°
2026-05-04 19:50 51.15607 -0.11193 2272 ft 220 kts 78°
2026-05-04 19:51 51.15996 -0.08800 2785 ft 227 kts 73°
2026-05-04 19:51 51.16414 -0.06337 3344 ft 231 kts 75°
2026-05-04 19:51 51.16815 -0.03848 3901 ft 235 kts 76°
2026-05-04 19:51 51.16937 -0.01227 4486 ft 240 kts 92°
2026-05-04 19:52 51.16846 0.01466 4844 ft 258 kts 91°
2026-05-04 19:52 51.16771 0.04354 5012 ft 264 kts 90°
2026-05-04 19:52 51.16709 0.07265 5016 ft 265 kts 91°
2026-05-04 19:52 51.16650 0.10210 5017 ft 267 kts 90°
2026-05-04 19:53 51.16594 0.13154 5020 ft 265 kts 90°
2026-05-04 19:53 51.16544 0.15997 5016 ft 264 kts 89°
2026-05-04 19:53 51.16546 0.18958 5177 ft 271 kts 88°
2026-05-04 19:53 51.16561 0.21984 5158 ft 271 kts 88°
2026-05-04 19:54 51.16572 0.24950 5348 ft 269 kts 88°
2026-05-04 19:54 51.16579 0.27943 5990 ft 273 kts 89°
2026-05-04 19:54 51.16584 0.30972 6794 ft 275 kts 89°
2026-05-04 19:54 51.16588 0.34034 7591 ft 277 kts 90°
2026-05-04 19:55 51.16591 0.37136 8394 ft 280 kts 90°
2026-05-04 19:55 51.16593 0.40260 9208 ft 284 kts 90°
2026-05-04 19:55 51.16594 0.43347 10000 ft 287 kts 91°
2026-05-04 19:55 51.16594 0.46544 10802 ft 289 kts 90°
2026-05-04 19:56 51.16625 0.49749 11633 ft 291 kts 84°
2026-05-04 19:56 51.17294 0.52782 12439 ft 295 kts 56°
2026-05-04 19:56 51.18771 0.55047 13333 ft 297 kts 32°
2026-05-04 19:56 51.20695 0.56250 14199 ft 302 kts 14°
2026-05-04 19:57 51.22112 0.56591 14642 ft 308 kts
2026-05-04 19:57 51.24981 0.57037 15566 ft 317 kts
2026-05-04 19:57 51.27152 0.57345 16309 ft 321 kts
2026-05-04 19:57 51.29374 0.57664 16830 ft 321 kts
2026-05-04 19:58 51.30850 0.57879 17027 ft 320 kts
2026-05-04 19:58 51.33831 0.58314 17282 ft 330 kts
2026-05-04 19:58 51.35376 0.58560 17671 ft 331 kts
2026-05-04 19:58 51.37676 0.58943 18404 ft 337 kts
2026-05-04 19:59 51.40022 0.59346 19024 ft 342 kts
2026-05-04 19:59 51.42388 0.59762 19776 ft 343 kts
2026-05-04 19:59 51.44751 0.60186 20405 ft 348 kts
2026-05-04 19:59 51.47173 0.60627 21032 ft 353 kts
2026-05-04 20:00 51.49620 0.61078 21750 ft 355 kts
2026-05-04 20:00 51.52081 0.61537 22411 ft 359 kts
2026-05-04 20:00 51.55370 0.62747 23197 ft 367 kts 20°
2026-05-04 20:00 51.56979 0.63759 23617 ft 370 kts 22°
2026-05-04 20:01 51.59368 0.65381 24151 ft 374 kts 23°
2026-05-04 20:01 51.61749 0.66979 24692 ft 377 kts 22°
2026-05-04 20:01 51.64193 0.68552 25220 ft 380 kts 21°
2026-05-04 20:01 51.66675 0.70089 25736 ft 384 kts 20°
2026-05-04 20:02 51.69202 0.71617 26257 ft 388 kts 20°
2026-05-04 20:02 51.71737 0.73134 26807 ft 390 kts 20°
2026-05-04 20:02 51.74275 0.74648 27454 ft 389 kts 20°
2026-05-04 20:02 51.76811 0.76165 28127 ft 387 kts 20°
2026-05-04 20:03 51.79334 0.77676 28748 ft 387 kts 20°
2026-05-04 20:03 51.81780 0.79473 29394 ft 385 kts 30°
2026-05-04 20:03 51.83955 0.81887 30237 ft 377 kts 41°
2026-05-04 20:03 51.85865 0.85134 30745 ft 377 kts 53°
2026-05-04 20:04 51.87292 0.88392 31136 ft 378 kts 58°
2026-05-04 20:04 51.88538 0.91783 31530 ft 378 kts 64°
2026-05-04 20:04 51.89619 0.95627 32046 ft 375 kts 69°
2026-05-04 20:04 51.90607 0.99526 32529 ft 374 kts 69°
2026-05-04 20:05 51.91472 1.02994 32871 ft 375 kts 69°
2026-05-04 20:05 51.92446 1.06921 33299 ft 375 kts 69°
2026-05-04 20:05 51.93417 1.10826 33780 ft 373 kts 69°
2026-05-04 20:05 51.94386 1.14717 34203 ft 372 kts 69°
2026-05-04 20:06 51.95357 1.18608 34532 ft 372 kts 69°
2026-05-04 20:06 51.96325 1.22488 34840 ft 373 kts 69°
2026-05-04 20:06 51.97296 1.26377 35186 ft 372 kts 69°
2026-05-04 20:06 51.98124 1.29699 35463 ft 372 kts 69°
2026-05-04 20:07 51.99234 1.34159 35805 ft 372 kts 69°
2026-05-04 20:07 52.00197 1.38031 36100 ft 371 kts 69°
2026-05-04 20:07 52.01152 1.41880 36393 ft 371 kts 69°
2026-05-04 20:07 52.02113 1.45758 36659 ft 371 kts 69°
2026-05-04 20:08 52.03079 1.49666 36809 ft 376 kts 69°
2026-05-04 20:08 52.04069 1.53681 36655 ft 389 kts 69°
2026-05-04 20:08 52.05087 1.57817 36559 ft 400 kts 69°
2026-05-04 20:09 52.07184 1.66351 36692 ft 413 kts 69°
2026-05-04 20:09 52.09344 1.75175 36819 ft 426 kts 69°
2026-05-04 20:10 52.11556 1.84250 37015 ft 436 kts 69°
2026-05-04 20:10 52.13813 1.93548 37046 ft 447 kts 69°
2026-05-04 20:11 52.16031 2.02727 37042 ft 458 kts 69°
2026-05-04 20:11 52.18385 2.12507 37050 ft 469 kts 69°
2026-05-04 20:12 52.20771 2.22466 37037 ft 472 kts 70°
2026-05-04 20:12 52.23154 2.32457 37037 ft 474 kts 70°
2026-05-04 20:13 52.25536 2.42496 37035 ft 474 kts 70°
2026-05-04 20:13 52.27907 2.52528 37030 ft 473 kts 70°
2026-05-04 20:14 52.30268 2.62563 37033 ft 471 kts 70°
2026-05-04 20:14 52.32103 2.71624 37040 ft 469 kts 75°
2026-05-04 20:15 52.34031 2.82932 37031 ft 468 kts 75°
2026-05-04 20:15 52.35819 2.93325 37038 ft 467 kts 75°
2026-05-04 20:16 52.37523 3.03042 37023 ft 466 kts 75°
2026-05-04 20:16 52.39213 3.12591 37034 ft 466 kts 72°
2026-05-04 20:17 52.42114 3.21904 37025 ft 468 kts 54°
2026-05-04 20:17 52.46013 3.30371 37028 ft 469 kts 52°
2026-05-04 20:18 52.50000 3.38914 37034 ft 470 kts 52°
2026-05-04 20:18 52.53941 3.47497 37029 ft 472 kts 53°
2026-05-04 20:19 52.57869 3.56159 37023 ft 473 kts 53°
2026-05-04 20:19 52.61778 3.64834 37036 ft 473 kts 53°
2026-05-04 20:20 52.65709 3.73585 37033 ft 474 kts 53°
2026-05-04 20:20 52.69625 3.82332 37033 ft 475 kts 53°
2026-05-04 20:21 52.73542 3.91106 37035 ft 475 kts 53°
2026-05-04 20:21 52.79271 4.03996 37015 ft 474 kts 53°
2026-05-04 20:22 52.83150 4.12760 37030 ft 474 kts 53°
2026-05-04 20:22 52.87057 4.21618 37034 ft 473 kts 53°
2026-05-04 20:23 52.90856 4.30263 37031 ft 473 kts 54°
2026-05-04 20:23 52.94718 4.39078 37043 ft 473 kts 54°
2026-05-04 20:24 52.98579 4.47924 37031 ft 472 kts 54°
2026-05-04 20:24 53.02382 4.56668 37033 ft 472 kts 54°
2026-05-04 20:25 53.06173 4.65412 37032 ft 472 kts 54°
2026-05-04 20:25 53.10004 4.74280 37025 ft 471 kts 54°
2026-05-04 20:26 53.13825 4.83157 37024 ft 471 kts 54°
2026-05-04 20:26 53.17641 4.92053 37028 ft 471 kts 54°
2026-05-04 20:27 53.21306 5.00627 37020 ft 471 kts 54°
2026-05-04 20:27 53.25073 5.09468 37022 ft 471 kts 54°
2026-05-04 20:28 53.28837 5.18335 37017 ft 471 kts 54°
2026-05-04 20:28 53.32605 5.27241 37028 ft 471 kts 54°
2026-05-04 20:29 53.36387 5.36213 37030 ft 472 kts 54°
2026-05-04 20:29 53.39988 5.44786 37032 ft 472 kts 54°
2026-05-04 20:30 53.43765 5.53808 37038 ft 473 kts 54°
2026-05-04 20:30 53.47539 5.62856 37036 ft 473 kts 54°
2026-05-04 20:31 53.51311 5.71932 37020 ft 474 kts 54°
2026-05-04 20:31 53.55086 5.81045 37027 ft 474 kts 55°
2026-05-04 20:32 53.58827 5.90113 37026 ft 475 kts 55°
2026-05-04 20:32 53.62591 5.99267 37035 ft 476 kts 54°
2026-05-04 20:33 53.66058 6.07730 37026 ft 476 kts 54°
2026-05-04 20:33 53.69813 6.16928 37030 ft 476 kts 55°
2026-05-04 20:34 53.73497 6.25983 37029 ft 476 kts 55°
2026-05-04 20:34 53.77243 6.35224 37033 ft 476 kts 55°
2026-05-04 20:35 53.80941 6.44384 37042 ft 476 kts 55°
2026-05-04 20:35 53.84674 6.53661 37041 ft 476 kts 55°
2026-05-04 20:36 53.87784 6.61416 37037 ft 476 kts 55°
2026-05-04 20:36 53.92047 6.72087 37038 ft 476 kts 55°
2026-05-04 20:37 53.95126 6.79822 37032 ft 476 kts 55°
2026-05-04 20:37 53.98823 6.89143 37022 ft 475 kts 55°
2026-05-04 20:38 54.02496 6.98437 37035 ft 475 kts 55°
2026-05-04 20:38 54.06011 7.07363 37048 ft 476 kts 55°
2026-05-04 20:39 54.09688 7.16734 37034 ft 476 kts 55°
2026-05-04 20:39 54.13303 7.25983 37036 ft 476 kts 56°
2026-05-04 20:40 54.16965 7.35386 37035 ft 476 kts 56°
2026-05-04 20:40 54.20620 7.44807 37023 ft 476 kts 56°
2026-05-04 20:41 54.24267 7.54242 37032 ft 476 kts 56°
2026-05-04 20:41 54.27883 7.63636 37044 ft 476 kts 56°
2026-05-04 20:42 54.31520 7.73116 37037 ft 476 kts 56°
2026-05-04 20:42 54.35023 7.82284 37031 ft 477 kts 56°
2026-05-04 20:43 54.38474 7.91349 37032 ft 476 kts 56°
2026-05-04 20:43 54.41955 8.00523 37027 ft 476 kts 56°
2026-05-04 20:44 54.45552 8.10045 37020 ft 477 kts 56°
2026-05-04 20:44 54.49154 8.19612 37029 ft 477 kts 56°
2026-05-04 20:45 54.52754 8.29209 37014 ft 477 kts 56°
2026-05-04 20:45 54.56345 8.38823 37016 ft 477 kts 56°
2026-05-04 20:46 54.59937 8.48475 37010 ft 477 kts 56°
2026-05-04 20:46 54.63493 8.58069 37007 ft 477 kts 56°
2026-05-04 20:47 54.67057 8.67723 36998 ft 477 kts 56°
2026-05-04 20:47 54.70628 8.77434 37027 ft 477 kts 56°
2026-05-04 20:48 54.74187 8.87148 37008 ft 477 kts 56°
2026-05-04 20:48 54.77737 8.96878 37001 ft 477 kts 56°
2026-05-04 20:49 54.81043 9.05973 37000 ft 477 kts 56°
2026-05-04 20:49 54.84577 9.15729 36995 ft 477 kts 56°
2026-05-04 20:50 54.88506 9.24944 37008 ft 474 kts 46°
2026-05-04 20:50 54.92940 9.33452 37014 ft 473 kts 46°
2026-05-04 20:51 54.97127 9.41550 36869 ft 476 kts 46°
2026-05-04 20:51 54.99266 9.45766 36309 ft 479 kts 47°
2026-05-04 20:51 55.01253 9.49718 35815 ft 476 kts 47°
2026-05-04 20:52 55.03435 9.54072 35171 ft 476 kts 47°
2026-05-04 20:52 55.05475 9.58144 33822 ft 475 kts 49°
2026-05-04 20:52 55.07606 9.62407 33961 ft 474 kts 47°
2026-05-04 20:52 55.09634 9.66968 33295 ft 475 kts 56°
2026-05-04 20:53 55.11177 9.71680 32762 ft 473 kts 64°
2026-05-04 20:53 55.12298 9.76589 32251 ft 472 kts 72°
2026-05-04 20:53 55.13270 9.82049 31801 ft 467 kts 73°
2026-05-04 20:53 55.14183 9.87435 31326 ft 463 kts 73°
2026-05-04 20:54 55.15044 9.92534 30867 ft 459 kts 73°
2026-05-04 20:54 55.15916 9.97638 30406 ft 457 kts 73°
2026-05-04 20:54 55.16589 10.01523 30067 ft 454 kts 72°
2026-05-04 20:54 55.17451 10.06457 29568 ft 451 kts 72°
2026-05-04 20:55 55.18272 10.11123 29118 ft 452 kts 72°
2026-05-04 20:55 55.19148 10.16099 28652 ft 453 kts 72°
2026-05-04 20:55 55.20068 10.21325 28150 ft 450 kts 72°
2026-05-04 20:55 55.20981 10.26535 27685 ft 445 kts 72°
2026-05-04 20:56 55.21884 10.31700 27202 ft 442 kts 72°
2026-05-04 20:56 55.22758 10.36721 26747 ft 438 kts 72°
2026-05-04 20:56 55.23634 10.41765 26273 ft 434 kts 72°
2026-05-04 20:56 55.24496 10.46749 25826 ft 431 kts 73°
2026-05-04 20:57 55.25256 10.51153 25423 ft 428 kts 73°
2026-05-04 20:57 55.26097 10.56030 24974 ft 426 kts 73°
2026-05-04 20:57 55.26873 10.60547 24567 ft 423 kts 73°
2026-05-04 20:57 55.27697 10.65358 24122 ft 421 kts 73°
2026-05-04 20:58 55.28532 10.70229 23687 ft 418 kts 73°
2026-05-04 20:58 55.29367 10.75104 23176 ft 415 kts 73°
2026-05-04 20:58 55.30185 10.79894 22687 ft 412 kts 73°
2026-05-04 20:58 55.31002 10.84685 22223 ft 409 kts 72°
2026-05-04 20:59 55.31813 10.89449 21756 ft 406 kts 72°
2026-05-04 20:59 55.32616 10.94189 21307 ft 402 kts 72°
2026-05-04 20:59 55.33409 10.98892 20872 ft 399 kts 73°
2026-05-04 20:59 55.34111 11.03101 20484 ft 396 kts 73°
2026-05-04 21:00 55.34874 11.07697 20051 ft 394 kts 73°
2026-05-04 21:00 55.35637 11.12307 19625 ft 391 kts 73°
2026-05-04 21:00 55.36393 11.16885 19190 ft 389 kts 73°
2026-05-04 21:00 55.37144 11.21439 18763 ft 387 kts 73°
2026-05-04 21:01 55.37880 11.25908 18326 ft 386 kts 73°
2026-05-04 21:01 55.38632 11.30488 17828 ft 384 kts 73°
2026-05-04 21:01 55.39352 11.34885 17379 ft 382 kts 73°
2026-05-04 21:01 55.40084 11.39366 16936 ft 380 kts 73°
2026-05-04 21:02 55.40799 11.43758 16504 ft 377 kts 73°
2026-05-04 21:02 55.41516 11.48169 16092 ft 372 kts 73°
2026-05-04 21:02 55.42217 11.52488 15771 ft 363 kts 73°
2026-05-04 21:02 55.42881 11.56597 15626 ft 350 kts 73°
2026-05-04 21:03 55.43549 11.60668 15473 ft 342 kts 70°
2026-05-04 21:03 55.44670 11.64269 15224 ft 334 kts 46°
2026-05-04 21:03 55.46283 11.67032 14939 ft 329 kts 38°
2026-05-04 21:03 55.47868 11.69478 14638 ft 329 kts 37°
2026-05-04 21:04 55.49580 11.72086 14308 ft 329 kts 37°
2026-05-04 21:04 55.51137 11.74472 13987 ft 328 kts 38°
2026-05-04 21:04 55.52808 11.77055 13641 ft 324 kts 38°
2026-05-04 21:04 55.54487 11.79672 13271 ft 320 kts 38°
2026-05-04 21:05 55.56146 11.82269 12942 ft 318 kts 38°
2026-05-04 21:05 55.57804 11.84872 12608 ft 319 kts 38°
2026-05-04 21:05 55.59312 11.87243 12319 ft 319 kts 38°
2026-05-04 21:05 55.60904 11.89752 11994 ft 315 kts 38°
2026-05-04 21:06 55.62454 11.92200 11691 ft 310 kts 38°
2026-05-04 21:06 55.64029 11.94690 11374 ft 308 kts 38°
2026-05-04 21:06 55.65621 11.97208 11076 ft 309 kts 38°
2026-05-04 21:06 55.67242 11.99772 10753 ft 310 kts 38°
2026-05-04 21:07 55.68535 12.01823 10489 ft 306 kts 38°
2026-05-04 21:07 55.70089 12.04290 10192 ft 301 kts 38°
2026-05-04 21:07 55.71623 12.06730 10077 ft 293 kts 38°
2026-05-04 21:07 55.72940 12.09466 9820 ft 299 kts 62°
2026-05-04 21:08 55.73426 12.13027 9528 ft 297 kts 90°
2026-05-04 21:08 55.73267 12.16610 9251 ft 292 kts 98°
2026-05-04 21:08 55.73019 12.20139 8954 ft 294 kts 98°
2026-05-04 21:08 55.72774 12.23747 8661 ft 295 kts 97°
2026-05-04 21:09 55.72542 12.27330 8359 ft 291 kts 97°
2026-05-04 21:09 55.72321 12.30834 8083 ft 287 kts 97°
2026-05-04 21:09 55.72101 12.34329 7804 ft 285 kts 97°
2026-05-04 21:09 55.71881 12.37844 7530 ft 287 kts 97°
2026-05-04 21:10 55.71660 12.41358 7247 ft 285 kts 97°
2026-05-04 21:10 55.71443 12.44783 6966 ft 281 kts 97°
2026-05-04 21:10 55.71223 12.48255 6689 ft 280 kts 97°
2026-05-04 21:10 55.71272 12.51660 6391 ft 281 kts 72°
2026-05-04 21:11 55.72055 12.54764 6146 ft 276 kts 60°
2026-05-04 21:11 55.72937 12.57768 5838 ft 272 kts 60°
2026-05-04 21:11 55.73803 12.60753 5558 ft 272 kts 61°
2026-05-04 21:11 55.74682 12.63737 5311 ft 273 kts 56°
2026-05-04 21:12 55.75892 12.66130 5068 ft 265 kts 37°
2026-05-04 21:12 55.77296 12.68213 4809 ft 262 kts 37°
2026-05-04 21:12 55.78686 12.70321 4548 ft 264 kts 38°
2026-05-04 21:12 55.80075 12.72459 4316 ft 260 kts 38°
2026-05-04 21:13 55.81403 12.74527 4201 ft 249 kts 38°
2026-05-04 21:13 55.82257 12.75861 4116 ft 243 kts 38°
2026-05-04 21:13 55.83463 12.77747 4013 ft 235 kts 38°
2026-05-04 21:13 55.84912 12.80475 3882 ft 222 kts 63°
2026-05-04 21:14 55.85151 12.82202 3818 ft 213 kts 89°
2026-05-04 21:14 55.84830 12.84666 3725 ft 201 kts 120°
2026-05-04 21:14 55.83946 12.86492 3639 ft 194 kts 149°
2026-05-04 21:14 55.82732 12.87403 3569 ft 190 kts 173°
2026-05-04 21:15 55.81420 12.87359 3490 ft 186 kts 196°
2026-05-04 21:15 55.80167 12.86867 3413 ft 188 kts 196°
2026-05-04 21:15 55.78885 12.86381 3327 ft 190 kts 196°
2026-05-04 21:15 55.77591 12.85887 3238 ft 191 kts 196°
2026-05-04 21:16 55.76305 12.85395 3139 ft 188 kts 196°
2026-05-04 21:16 55.75031 12.84907 3030 ft 185 kts 196°
2026-05-04 21:16 55.73861 12.84271 2932 ft 171 kts 217°
2026-05-04 21:16 55.73017 12.82875 2767 ft 166 kts 226°
2026-05-04 21:17 55.72133 12.81562 2555 ft 166 kts 224°
2026-05-04 21:17 55.71274 12.80272 2330 ft 164 kts 225°
2026-05-04 21:17 55.70499 12.79083 2140 ft 162 kts 225°
2026-05-04 21:17 55.69649 12.77770 1905 ft 159 kts 226°
2026-05-04 21:18 55.68849 12.76535 1686 ft 147 kts 226°
2026-05-04 21:18 55.68114 12.75397 1502 ft 136 kts 226°
2026-05-04 21:18 55.67381 12.74259 1313 ft 139 kts 226°
2026-05-04 21:18 55.66687 12.73185 1220 ft 129 kts 227°
2026-05-04 21:19 55.66020 12.72119 1013 ft 130 kts 225°
2026-05-04 21:19 55.65315 12.71088 778 ft 132 kts 223°
2026-05-04 21:19 55.64610 12.70036 593 ft 132 kts 224°
2026-05-04 21:19 55.63936 12.68968 404 ft 133 kts 225°
2026-05-04 21:20 55.63259 12.67890 247 ft 131 kts 225°
2026-05-04 21:20 55.62589 12.66849 97 ft 131 kts 224°
2026-05-04 21:20 55.61967 12.65883 18 ft 107 kts 224°
2026-05-04 21:20 55.61596 12.65289 15 ft 41 kts 223°
2026-05-04 21:21 55.61410 12.64998 17 ft 27 kts 221°
2026-05-04 21:21 55.61300 12.64751 17 ft 25 kts 237°
2026-05-04 21:21 55.61229 12.64495 16 ft 16 kts 251°
2026-05-04 21:21 55.61227 12.64485 16 ft 0 kts 251°
2026-05-04 21:22 55.61223 12.64465 16 ft 7 kts 251°
2026-05-04 21:23 55.61197 12.64331 16 ft 14 kts 251°
2026-05-04 21:23 55.61221 12.64108 17 ft 27 kts 330°
2026-05-04 21:23 55.61282 12.64119 16 ft 3 kts 27°
2026-05-04 21:23 55.61326 12.64164 16 ft 17 kts 30°
2026-05-04 21:24 55.61434 12.64289 16 ft 15 kts 33°
2026-05-04 21:24 55.61530 12.64400 18 ft 19 kts 33°
2026-05-04 21:24 55.61691 12.64586 17 ft 29 kts 31°
2026-05-04 21:24 55.61850 12.64768 17 ft 28 kts 33°
2026-05-04 21:25 55.61986 12.64922 16 ft 22 kts 33°
2026-05-04 21:25 55.62122 12.65075 18 ft 25 kts 31°
2026-05-04 21:25 55.62177 12.65139 18 ft 16 kts 34°
2026-05-04 21:25 55.62293 12.65199 16 ft 21 kts
2026-05-04 21:26 55.62454 12.65200 16 ft 24 kts 358°
2026-05-04 21:26 55.62574 12.65192 16 ft 11 kts 358°
2026-05-04 21:26 55.62648 12.65270 16 ft 14 kts 80°
2026-05-04 21:26 55.62601 12.65332 16 ft 8 kts 186°
2026-05-04 21:27 55.62523 12.65327 16 ft 14 kts 178°
2026-05-04 21:27 55.62447 12.65368 16 ft 7 kts 121°
2026-05-04 21:27 55.62447 12.65401 16 ft 4 kts 70°
2026-05-04 21:27 55.62476 12.65443 16 ft 8 kts 25°
2026-05-04 21:28 55.62484 12.65450 16 ft 0 kts 25°
2026-05-04 21:28 55.62485 12.65451 16 ft 0 kts 25°
2026-05-04 21:28 55.62486 12.65452 16 ft 0 kts 25°
2026-05-04 21:28 55.62498 12.65461 16 ft 4 kts 24°
2026-05-04 21:29 55.62507 12.65468 16 ft 2 kts 24°
2026-05-04 21:29 55.62508 12.65470 16 ft 0 kts 24°